Location: Champs
(48.8539°N, 2.6040°E)
Time: 13:34:36
(UTC+00:00)

ISS - Pass Details

Date: 26 October 2021
Orbit: 417 x 422 km, 51.6° (Epoch: 07 December)

Event Time Altitude Azimuth Distance (km) Brightness Sun altitude
Exits shadow 03:34:51 14° 112° (ESE) 1,290 -0.7 -28.8°
Drops below altitude 10° 03:35:47 10° 97° (E) 1,499 -0.1 -28.6°
Sets 03:38:25 0° 76° (ENE) 2,366 1.3 -28.2°
